Date,TemperatureHighF,TemperatureAvgF,TemperatureLowF,DewpointHighF,DewpointAvgF,DewpointLowF,HumidityHigh,HumidityAvg,HumidityLow,PressureMaxIn,PressureMinIn,WindSpeedMaxMPH,WindSpeedAvgMPH,GustSpeedMaxMPH,PrecipitationSumIn
2013-1-6,29,28,26,23,21,19,79,76,73,30.31,30.13,2,0,0,0.00
2013-1-7,40,33,24,29,23,18,86,67,49,30.31,29.91,12,3,0,0.04
2013-1-8,41,35,30,32,30,27,93,81,61,30.18,29.98,10,1,0,0.00
2013-1-9,40,37,31,33,26,21,86,67,53,30.45,29.83,13,5,0,0.00
2013-1-10,39,32,25,29,25,22,92,78,56,30.60,30.20,10,1,0,0.00
2013-1-11,44,38,34,44,37,28,100,98,76,30.19,29.70,11,2,0,0.46
2013-1-12,53,43,36,47,38,28,100,83,52,29.98,29.64,24,3,0,0.01
2013-1-13,36,31,28,33,30,27,100,97,77,29.98,29.89,7,0,0,0.04
2013-1-14,27,22,20,27,15,6,100,75,46,30.42,30.00,12,2,0,0.00
2013-1-15,27,22,11,18,12,5,84,66,51,30.44,30.12,8,2,0,0.02
2013-1-16,31,26,20,30,21,9,100,80,61,30.11,29.66,17,3,0,0.00
2013-1-17,19,14,10,11,3,-7,85,64,42,30.36,30.05,11,2,0,0.00
2013-1-18,29,17,10,29,12,0,100,80,52,30.40,29.77,10,2,0,0.00
2013-1-19,36,30,26,36,29,22,100,96,78,29.85,29.43,14,2,0,0.06
2013-1-20,26,15,8,21,5,-4,94,65,47,30.21,29.47,21,4,0,0.00
2013-1-21,11,8,2,7,2,-5,87,79,61,30.15,29.98,10,2,0,0.00
2013-1-22,4,1,-1,-1,-4,-8,82,78,72,30.32,30.12,8,1,0,0.00
2013-1-23,14,9,2,11,5,-2,89,86,81,30.32,30.11,4,0,0,0.00
2013-1-24,6,0,-10,3,-7,-21,86,73,59,30.75,30.34,14,2,0,0.00
2013-1-25,19,12,3,16,7,-3,89,80,70,30.56,30.04,11,2,0,0.00
2013-1-26,22,12,4,16,8,-1,90,85,72,30.46,30.10,5,0,0,0.02
2013-1-27,30,24,10,27,19,7,100,84,65,30.47,30.12,7,2,0,0.00
2013-1-28,34,30,26,33,29,25,100,98,90,30.11,29.85,8,1,0,0.07
2013-1-29,46,36,30,46,35,29,100,99,88,30.02,29.50,12,3,0,0.88
2013-1-30,36,32,19,36,31,15,100,98,84,29.50,29.16,12,2,0,0.26
2013-1-31,19,15,11,15,10,6,87,81,70,29.90,29.24,8,2,0,0.00